Regional Weather Roundup
Issued by NWS

Home | Current Version | Previous Version | Text Only | Print | Product List | Glossary On
Versions: 1 2 3 4 5 6 7 8 9 10 11 12 13 14 15 16 17 18 19 20 21 22 23 24 25 26 27 28 29 30 31 32 33 34 35 36 37 38 39 40 41 42 43 44 45 46 47 48 49 50
000
ASUS43 KMPX 220810
RWRMN
WEATHER ROUNDUP FOR MINNESOTA
NATIONAL WEATHER SERVICE TWIN CITIES/CHANHASSEN MN
300 AM CDT WED OCT 22 2014


NOTE: "FAIR" INDICATES FEW OR NO CLOUDS BELOW 12,000 FEET WITH NO
SIGNIFICANT WEATHER AND/OR OBSTRUCTIONS TO VISIBILITY. N/A MEANS
CURRENT SKY AND/OR WEATHER CONDITIONS ARE NOT AVAILABLE.

MNZ060>063-068>070-220900-
   Twin Cities Metro

CITY           SKY/WX    TMP DP  RH WIND       PRES   REMARKS
TWIN CITIES    CLEAR     42  36  79 SE12      30.19S
ST PAUL        CLEAR     44  37  76 SE14      30.21R
CRYSTAL        CLEAR     46  37  71 SE12      30.17R
BLAINE         CLEAR     46  39  76 SE10G18   30.18R
LAKEVILLE      CLEAR     39  36  87 SE8       30.19S
EDEN PRAIRIE   CLEAR     44  37  76 SE13      30.17R
SOUTH ST PAUL  CLEAR     44  37  75 SE7       30.20R
LAKE ELMO      FAIR      43  37  81 S7        30.22R
$$
MNZ001>005-007-008-013>017-022>024-027-028-220900-
   Northwest Minnesota

CITY           SKY/WX    TMP DP  RH WIND       PRES   REMARKS
BEMIDJI        CLEAR     46  38  76 SE14      30.03R
HALLOCK        CLEAR     55  43  62 S25G31    29.81F
ROSEAU         CLEAR     52  41  66 S17G23    29.91S
WARROAD        CLEAR     48  43  81 S15G22    29.94F
THIEF RVR FALL CLEAR     52  39  62 SE16      29.91S
CROOKSTON      CLEAR     54  43  66 S20G30    29.88F
FOSSTON        CLEAR     48  39  71 SE14G22   29.95S
DETROIT LAKES  CLEAR     50  41  71 SE17      29.99S
MOORHEAD       CLEAR     55  45  67 SE24G31   29.91F
PARK RAPIDS    CLEAR     47  39  74 S21       30.04S
MAHNOMEN       FAIR      50  40  68 S17G23    29.95S
$$
MNZ006-009>011-018-025>026-220900-
   North Central Minnesota

CITY           SKY/WX    TMP DP  RH WIND       PRES   REMARKS
BAUDETTE       CLEAR     44  37  76 SE8       30.00S
FLAG ISLAND    CLEAR     46  41  81 S26       29.94S
INTL FALLS     CLEAR     41  35  79 SE9G18    30.07S
WASKISH        CLEAR     46  39  76 SE12G20   30.01S
BIG FORK       CLEAR     43  36  75 SE8       30.10R
LONGVILLE      CLEAR     45  39  81 SE10G17   30.08S
GRAND RAPIDS   CLEAR     37  34  87 SE9       30.11F
CRANE LAKE     CLEAR     37  36  93 SE3       30.15S
ORR            CLEAR     37  34  87 SE7       30.10S
COOK           CLEAR     39  36  87 SE6       30.14S
WALKER         FAIR      46  38  74 SE10      30.05S
$$
MNZ012-019>021-037-220900-
   Northeast Minnesota

CITY           SKY/WX    TMP DP  RH WIND       PRES   REMARKS
DULUTH         CLEAR     41  34  76 S9        30.19S
ELY            CLEAR     36  36 100 SE6       30.17F
HIBBING        CLEAR     36  33  89 SE6       30.15S
EVELETH        CLEAR     36  36 100 SE6       30.17S
DULUTH HARBOR  CLEAR     43  37  81 CALM      30.22S
TWO HARBORS    CLEAR     36  27  69 CALM      30.20S
SILVER BAY     CLEAR     36  36 100 CALM      30.21S
GRAND MARAIS     N/A     35  33  92 N5        30.26S WCI  31
G MARAIS ARPRT PTCLDY    34  30  86 SE5       30.23S WCI  30
$$
MNZ029>031-032-039>041-046>048-054>057-064-220900-
   West Central Minnesota

CITY           SKY/WX    TMP DP  RH WIND       PRES   REMARKS
FERGUS FALLS   CLEAR     52  37  58 SE20      29.99S
WHEATON        CLEAR     48  39  71 SE17      29.97S
MORRIS         PTCLDY    48  41  76 SE17      30.00S
ALEXANDRIA     CLEAR     48  40  73 SE15      30.06S
ELBOW LAKE     FAIR      50  40  69 SE21      29.99S
WADENA         CLEAR     45  37  76 SE13G18   30.04S
GLENWOOD       CLEAR     48  39  71 SE15G22   30.06S
APPLETON       PTCLDY    52  41  66 SE13G18   30.01S
BENSON         PTCLDY    48  39  71 S15       30.04R
ORTONVILLE     PTCLDY    50  41  71 SE15      29.98S
MADISON        PTCLDY    54  45  71 SE10      30.00S
WILLMAR        FAIR      48  37  66 SE15G21   30.09S
$$
MNZ033>034-036-042>043-049>051-058-059-220900-
   Central Minnesota

CITY           SKY/WX    TMP DP  RH WIND       PRES   REMARKS
ST CLOUD       CLEAR     45  37  73 SE6       30.14R
SAUK CENTRE    FAIR      45  38  79 SE10      30.09S
PAYNESVILLE    CLEAR     45  38  76 E15G23    30.10S
AITKIN         CLEAR     46  37  71 SE9       30.11S
PINE RIVER     CLEAR     45  37  76 SE9       30.12S
BRAINERD       CLEAR     44  37  76 S9        30.12R
STAPLES        CLEAR     45  37  76 SE10G16   30.07S
LONG PRAIRIE   FAIR      45  37  76 SE14      30.09R
LITTLE FALLS   CLEAR     41  36  81 SE7       30.12R
LITCHFIELD     CLEAR     48  39  71 SE10      30.12R
BUFFALO        CLEAR     45  37  72 SE6       30.16R
MAPLE LAKE     CLEAR     46  40  78 SE7       30.16R
$$
MNZ037-044-045-052-053-220900-
   East Central Minnesota

CITY           SKY/WX    TMP DP  RH WIND       PRES   REMARKS
PRINCETON      CLEAR     43  37  81 SE5       30.16R
MORA           CLEAR     37  34  87 CALM      30.19R
CAMBRIDGE      CLEAR     45  36  70 SE8       30.16R
RUSH CITY      CLEAR     42  36  79 S8        30.19R
MOOSE LAKE     CLEAR     41  36  81 S3        30.16S
HINCKLEY       FAIR      39  36  87 SE3       30.18S
CLOQUET        CLEAR     36  34  93 E3        30.18S
MCGREGOR       CLEAR     39  36  87 SE8       30.15S
$$
MNZ071>073-080-081-089-090-097-098-220900-
   Southwest Minnesota

CITY           SKY/WX    TMP DP  RH WIND       PRES   REMARKS
MONTEVIDEO     PTCLDY    48  41  76 S12       30.05R
GRANITE FALLS  PTCLDY    48  40  74 SE13G18   30.06S
CANBY          MOCLDY    55  43  65 S14       30.01R
MARSHALL       CLEAR     52  39  62 S23G29    30.02S
REDWOOD FALLS  CLEAR     47  39  74 SE15      30.09R
OLIVIA         CLEAR     46  37  71 SE13G18   30.08R
PIPESTONE      CLEAR     50  43  76 S16G23    30.03R
WINDOM         CLEAR     46  39  76 SE14G20   30.10S
WORTHINGTON    CLEAR     46  39  76 S16G22    30.09R
JACKSON        CLEAR     45  37  76 SE12G17   30.12R
TRACY          CLEAR     50  41  71 S17G24    30.05S
SLAYTON        CLEAR     47  41  78 SE15      30.07R
$$
MNZ065>067-074>077-082>085-091>093-220900-
   South Central Minnesota

CITY           SKY/WX    TMP DP  RH WIND       PRES   REMARKS
MANKATO        CLEAR     45  34  65 SE17      30.15S
NEW ULM        CLEAR     45  39  81 S13       30.12S
ST JAMES       CLEAR     46  37  71 SE15      30.13S
FAIRMONT       CLEAR     45  36  70 SE15      30.14R
GLENCOE        CLEAR     46  39  79 SE9       30.14R
FARIBAULT      CLEAR     43  37  81 SE13      30.19S
OWATONNA       CLEAR     43  36  75 SE12      30.19R
WASECA         CLEAR     41  34  75 SE10G16   30.19S
ALBERT LEA     CLEAR     43  37  81 SE14      30.19S
$$
MNZ078>079-086>088-094>096-220900-
   Southeast Minnesota

CITY           SKY/WX    TMP DP  RH WIND       PRES   REMARKS
ROCHESTER      CLEAR     38  35  89 SE9       30.23R
RED WING       CLEAR     45  37  76 SE10      30.22S
STANTON        CLEAR     44  37  76 S9        30.19R
DODGE CENTER   PTCLDY    39  37  93 SE13      30.21R
WINONA         CLEAR     37  36  93 SE5       30.27R
AUSTIN         CLEAR     41  36  81 S7        30.21R
PRESTON        CLEAR     38  35  89 SE9       30.24R
$$
ABBREVIATIONS USED IN REMARKS
   TC - TEMPERATURES IN CELSIUS
  WCI - WIND CHILL INDEX
   HX - HEAT INDEX
  VSB - VISIBILITY
$$



USA.gov is the U.S. government's official web portal to all federal, state and local government web resources and services.